When you browse on this site, cookies collect data to enhance your experience and personalize the content and advertising you see.
Visit our Privacy Policy to learn more. By continuing to use the site, you agree to this use of cookies and data.
  • In Latvia
  • List of Countries
  • For 7 days
  • Water Temperature
  • Satellite Maps
  • Weather Map
  • Weather Widgets
  • user-avatar
    Login

    Hourly Weather Shusha

    Today, 24 May, Friday

    Time Temperature Precipitation Wind Pressure Humidity
    00:00 +13°C° 0.2 mm 1 mps 658 mmHg 88%
    01:00 +13°C° 0 mm 1 mps 658 mmHg 87%
    02:00 +13°C° 0 mm 1 mps 658 mmHg 87%
    03:00 +13°C° 0 mm 2 mps 658 mmHg 85%
    04:00 +13°C° 0 mm 1 mps 658 mmHg 84%
    05:00 +14°C° 0 mm 1 mps 659 mmHg 82%
    06:00 +15°C° 0 mm 1 mps 659 mmHg 80%
    07:00 +18°C° 0 mm 1 mps 659 mmHg 73%
    08:00 +18°C° 0 mm 2 mps 659 mmHg 65%
    09:00 +20°C° 0 mm 2 mps 660 mmHg 60%
    10:00 +21°C° 0.2 mm 2 mps 660 mmHg 59%
    11:00 +23°C° 0.2 mm 2 mps 659 mmHg 57%
    12:00 +23°C° 0.2 mm 2 mps 659 mmHg 56%
    13:00 +23°C° 0.2 mm 2 mps 659 mmHg 56%
    14:00 +23°C° 0.2 mm 2 mps 659 mmHg 57%
    15:00 +24°C° 0.2 mm 2 mps 659 mmHg 57%
    16:00 +21°C° 0.4 mm 2 mps 659 mmHg 64%
    17:00 +20°C° 0.4 mm 2 mps 659 mmHg 70%
    18:00 +19°C° 0.4 mm 2 mps 659 mmHg 76%
    19:00 +19°C° 0.7 mm 1 mps 659 mmHg 80%
    20:00 +16°C° 0.7 mm 1 mps 659 mmHg 84%
    21:00 +15°C° 0.7 mm 1 mps 659 mmHg 89%
    22:00 +15°C° 0 mm 1 mps 659 mmHg 87%
    23:00 +15°C° 0 mm 1 mps 659 mmHg 85%

    Tomorrow, 25 May, Saturday

    Time Temperature Precipitation Wind Pressure Humidity
    00:00 +14°C° 0 mm 1 mps 659 mmHg 84%
    01:00 +14°C° 0 mm 1 mps 659 mmHg 82%
    02:00 +14°C° 0 mm 1 mps 659 mmHg 81%
    03:00 +14°C° 0 mm 1 mps 660 mmHg 80%
    04:00 +15°C° 0 mm 1 mps 660 mmHg 77%
    05:00 +15°C° 0 mm 1 mps 660 mmHg 74%
    06:00 +16°C° 0 mm 1 mps 660 mmHg 72%
    07:00 +19°C° 0 mm 1 mps 661 mmHg 67%
    08:00 +20°C° 0 mm 2 mps 661 mmHg 61%
    09:00 +23°C° 0 mm 2 mps 661 mmHg 56%
    10:00 +24°C° 0 mm 2 mps 661 mmHg 53%
    11:00 +26°C° 0 mm 3 mps 661 mmHg 50%
    12:00 +27°C° 0 mm 3 mps 661 mmHg 47%
    13:00 +27°C° 0 mm 3 mps 661 mmHg 48%
    14:00 +27°C° 0 mm 3 mps 660 mmHg 49%
    15:00 +27°C° 0 mm 3 mps 660 mmHg 50%
    16:00 +26°C° 0 mm 3 mps 660 mmHg 58%
    17:00 +24°C° 0 mm 2 mps 659 mmHg 65%
    18:00 +23°C° 0 mm 2 mps 659 mmHg 73%
    19:00 +21°C° 0.1 mm 2 mps 659 mmHg 74%
    20:00 +21°C° 0.1 mm 1 mps 659 mmHg 75%
    21:00 +20°C° 0.1 mm 1 mps 659 mmHg 76%
    22:00 +18°C° 0 mm 2 mps 659 mmHg 73%
    23:00 +17°C° 0 mm 2 mps 658 mmHg 70%

    Day after tomorrow, 26 May, Sunday

    Time Temperature Precipitation Wind Pressure Humidity
    00:00 +17°C° 0 mm 2 mps 658 mmHg 67%
    01:00 +16°C° 0 mm 2 mps 658 mmHg 65%
    02:00 +16°C° 0 mm 2 mps 658 mmHg 64%
    03:00 +16°C° 0 mm 2 mps 658 mmHg 62%
    04:00 +16°C° 0 mm 2 mps 658 mmHg 62%
    05:00 +17°C° 0 mm 2 mps 658 mmHg 62%
    06:00 +17°C° 0 mm 2 mps 659 mmHg 62%
    07:00 +20°C° 0 mm 2 mps 659 mmHg 57%
    08:00 +23°C° 0 mm 2 mps 660 mmHg 52%
    09:00 +25°C° 0 mm 2 mps 660 mmHg 47%
    10:00 +26°C° 0 mm 3 mps 660 mmHg 46%
    11:00 +26°C° 0 mm 3 mps 660 mmHg 45%
    12:00 +27°C° 0 mm 4 mps 660 mmHg 43%
    13:00 +26°C° 0.2 mm 3 mps 659 mmHg 50%
    14:00 +24°C° 0.2 mm 3 mps 658 mmHg 57%
    15:00 +23°C° 0.2 mm 2 mps 658 mmHg 64%
    16:00 +21°C° 0 mm 2 mps 658 mmHg 66%
    17:00 +21°C° 0 mm 2 mps 657 mmHg 68%
    18:00 +21°C° 0 mm 2 mps 657 mmHg 70%
    19:00 +19°C° 0.1 mm 2 mps 658 mmHg 75%
    20:00 +18°C° 0.1 mm 1 mps 658 mmHg 80%
    21:00 +16°C° 0.1 mm 1 mps 658 mmHg 85%
    22:00 +15°C° 0 mm 1 mps 658 mmHg 86%
    23:00 +15°C° 0 mm 1 mps 659 mmHg 87%

    27 May, Monday

    Time Temperature Precipitation Wind Pressure Humidity
    00:00 +15°C° 0 mm 2 mps 659 mmHg 88%
    01:00 +15°C° 0 mm 2 mps 659 mmHg 87%
    02:00 +14°C° 0 mm 2 mps 659 mmHg 86%
    03:00 +14°C° 0 mm 1 mps 659 mmHg 85%
    04:00 +15°C° 0 mm 1 mps 660 mmHg 83%
    05:00 +15°C° 0 mm 1 mps 660 mmHg 80%
    06:00 +16°C° 0 mm 1 mps 661 mmHg 78%
    07:00 +18°C° 0 mm 1 mps 661 mmHg 73%
    08:00 +19°C° 0 mm 2 mps 662 mmHg 69%
    09:00 +20°C° 0 mm 2 mps 662 mmHg 64%
    10:00 +21°C° 0.1 mm 3 mps 662 mmHg 61%
    11:00 +21°C° 0.1 mm 3 mps 662 mmHg 59%
    12:00 +22°C° 0.1 mm 3 mps 662 mmHg 56%
    13:00 +22°C° 0.5 mm 3 mps 662 mmHg 56%
    14:00 +22°C° 0.5 mm 3 mps 662 mmHg 56%
    15:00 +22°C° 0.5 mm 3 mps 661 mmHg 56%
    16:00 +21°C° 0.3 mm 3 mps 661 mmHg 59%
    17:00 +21°C° 0.3 mm 3 mps 662 mmHg 63%
    18:00 +20°C° 0.3 mm 3 mps 662 mmHg 66%
    19:00 +18°C° 0 mm 2 mps 662 mmHg 73%
    20:00 +16°C° 0 mm 1 mps 662 mmHg 80%
    21:00 +15°C° 0 mm 1 mps 662 mmHg 86%
    22:00 +14°C° 0.1 mm 1 mps 663 mmHg 87%
    23:00 +14°C° 0.1 mm 1 mps 663 mmHg 87%

    28 May, Tuesday

    Time Temperature Precipitation Wind Pressure Humidity
    00:00 +14°C° 0.1 mm 1 mps 663 mmHg 88%
    01:00 +13°C° 0.1 mm 1 mps 663 mmHg 87%
    02:00 +13°C° 0.1 mm 1 mps 663 mmHg 87%
    03:00 +13°C° 0.1 mm 1 mps 663 mmHg 86%
    04:00 +14°C° 0.3 mm 1 mps 663 mmHg 84%
    05:00 +14°C° 0.3 mm 1 mps 663 mmHg 82%
    06:00 +15°C° 0.3 mm 1 mps 664 mmHg 80%
    07:00 +16°C° 0.1 mm 1 mps 664 mmHg 75%
    08:00 +17°C° 0.1 mm 2 mps 664 mmHg 70%
    09:00 +18°C° 0.1 mm 2 mps 665 mmHg 65%
    10:00 +18°C° 0.1 mm 2 mps 665 mmHg 64%
    11:00 +18°C° 0.1 mm 3 mps 664 mmHg 64%
    12:00 +19°C° 0.1 mm 3 mps 664 mmHg 63%
    13:00 +19°C° 0 mm 3 mps 664 mmHg 62%
    14:00 +20°C° 0 mm 3 mps 664 mmHg 60%
    15:00 +20°C° 0 mm 3 mps 664 mmHg 59%
    16:00 +19°C° 0.6 mm 2 mps 663 mmHg 63%
    17:00 +19°C° 0.6 mm 2 mps 663 mmHg 67%
    18:00 +18°C° 0.6 mm 2 mps 663 mmHg 71%
    19:00 +18°C° 0.7 mm 1 mps 663 mmHg 75%
    20:00 +16°C° 0.7 mm 1 mps 664 mmHg 79%
    21:00 +14°C° 0.7 mm 1 mps 664 mmHg 83%
    22:00 +14°C° 0 mm 1 mps 664 mmHg 83%
    23:00 +14°C° 0 mm 1 mps 664 mmHg 83%

    29 May, Wednesday

    Time Temperature Precipitation Wind Pressure Humidity
    00:00 +13°C° 0 mm 2 mps 663 mmHg 83%
    01:00 +13°C° 0 mm 2 mps 663 mmHg 83%
    02:00 +13°C° 0 mm 2 mps 663 mmHg 82%
    03:00 +12°C° 0 mm 2 mps 663 mmHg 81%
    04:00 +13°C° 0 mm 2 mps 663 mmHg 78%
    05:00 +14°C° 0 mm 1 mps 663 mmHg 75%
    06:00 +15°C° 0 mm 1 mps 664 mmHg 73%
    07:00 +16°C° 0 mm 1 mps 664 mmHg 67%
    08:00 +18°C° 0 mm 2 mps 664 mmHg 62%
    09:00 +19°C° 0 mm 2 mps 665 mmHg 56%
    10:00 +20°C° 0 mm 2 mps 664 mmHg 54%
    11:00 +21°C° 0 mm 2 mps 664 mmHg 51%
    12:00 +22°C° 0 mm 3 mps 664 mmHg 49%
    13:00 +22°C° 0 mm 3 mps 664 mmHg 49%
    14:00 +22°C° 0 mm 3 mps 663 mmHg 49%
    15:00 +24°C° 0 mm 3 mps 663 mmHg 48%
    16:00 +23°C° 0.4 mm 2 mps 663 mmHg 52%
    17:00 +21°C° 0.4 mm 2 mps 663 mmHg 56%
    18:00 +20°C° 0.4 mm 2 mps 662 mmHg 60%
    19:00 +20°C° 0.4 mm 1 mps 662 mmHg 65%
    20:00 +18°C° 0.4 mm 1 mps 662 mmHg 69%
    21:00 +15°C° 0.4 mm 1 mps 662 mmHg 73%
    22:00 +15°C° 0 mm 2 mps 662 mmHg 74%
    23:00 +14°C° 0 mm 2 mps 662 mmHg 75%
    Show more